Retour au catalogue

SAKURA 2A

CS-2A

ActifCommunicationsGEO
NORAD 13782·PAYLOAD·🇯🇵 Japan

Lancé Feb 4, 1983 depuis Tanegashima Space Center

Loading…

TLE

FraisSource: Space-Track

Époque: Sep 13, 2026, 17:33 UTC

1 13782U 83006A   26256.73184786  .00000080  00000-0  00000-0 0  9991
2 13782  10.1471 319.9318 0011402 320.9541  35.9787  0.99402540128725

Suivez SAKURA 2A en temps réel avec AllMySat

Download on the App Store